Location: Cactus School
(34.5700°N, 118.0931°W)
Time: 00:36:27
(UTC-08:00)

N. Korean satellite - Pass Details

Date: 19 November 2017
Orbit: 460 x 515 km, 97.2° (Epoch: 17 November)

Event Time Altitude Azimuth Distance (km) Brightness Sun altitude
Rises 18:29:16 0° 190° (S) 2,475 10.4 -21.3°
Reaches altitude 10° 18:31:28 10° 202° (SSW) 1,610 9.6 -21.8°
Maximum altitude 18:34:29 28° 263° (W) 908 8.6 -22.4°
Drops below altitude 10° 18:37:34 10° 324° (NW) 1,642 9.6 -23.0°
Sets 18:39:51 0° 336° (NNW) 2,534 10.4 -23.5°
